Location: Keppel Henge
(44.7900°N, 80.9447°W)
Time: 21:42:49
(UTC-05:00)

Envisat - Pass Details

Date: 07 October 2017
Orbit: 764 x 766 km, 98.2° (Epoch: 13 December)

Event Time Altitude Azimuth Distance (km) Brightness Sun altitude
Exits shadow 21:18:27 58° 194° (SSW) 888 3.2 -26.4°
Maximum altitude 21:19:22 75° 257° (WSW) 797 3.1 -26.5°
Drops below altitude 10° 21:24:28 10° 343° (NNW) 2,315 5.9 -27.4°
Sets 21:26:48 0° 346° (NNW) 3,246 6.7 -27.8°
